N0XUT Weather Reports


Display with metric or nautical units.
time (UTC)temp
F
wind
direction
speed
MPH
gust
MPH
rain 1hr
in
rain 24hr
in
rain mn
in
humidity
%
barometer
mb
20260504045956 54 263 0.0 1.0 0.00 0.00 0.00 51 1004.7
20260504044455 54 263 0.0 1.0 0.00 0.00 0.00 51 1004.9
20260504041456 55 263 0.0 1.0 0.00 0.00 0.00 52 1005.1
20260504035955 56 301 0.0 1.0 0.00 0.00 0.00 48 1005.3
20260504034455 57 301 0.0 0.0 0.00 0.00 0.00 48 1005.4
20260504031456 59 302 0.0 1.0 0.00 0.00 0.00 44 1005.7
20260504025955 60 302 0.0 2.0 0.00 0.00 0.00 43 1005.6
20260504024456 61 287 1.0 2.0 0.00 0.00 0.00 42 1005.5
20260504022956 61 298 2.0 3.0 0.00 0.00 0.00 40 1005.4
20260504015956 63 305 0.0 2.0 0.00 0.00 0.00 37 1005.2
20260504014456 64 311 1.0 3.0 0.00 0.00 0.00 35 1005.0
20260504012956 66 306 1.0 3.0 0.00 0.00 0.00 34 1004.9
20260504011455 67 309 1.0 7.0 0.00 0.00 0.00 32 1004.7
20260504005956 69 300 3.0 8.0 0.00 0.00 0.00 30 1004.7
20260504004455 70 290 4.0 9.0 0.00 0.00 0.00 29 1004.6
20260504002957 71 295 5.0 12.0 0.00 0.00 0.00 27 1004.6
20260503234456 73 319 6.0 17.0 0.00 0.00 0.00 23 1004.4
20260503232956 73 308 9.0 16.0 0.00 0.00 0.00 23 1004.5
20260503231456 74 298 9.0 17.0 0.00 0.00 0.00 23 1004.6
20260503225956 74 294 9.0 20.0 0.00 0.00 0.00 24 1004.6
20260503224456 74 275 7.0 16.0 0.00 0.00 0.00 24 1004.4
20260503215956 74 271 10.0 18.0 0.00 0.00 0.00 27 1004.2
20260503214456 74 269 9.0 20.0 0.00 0.00 0.00 27 1004.3
20260503212956 74 280 6.0 20.0 0.00 0.00 0.00 29 1004.3
20260503211456 74 310 9.0 20.0 0.00 0.00 0.00 28 1004.3
20260503205956 74 295 10.0 20.0 0.00 0.00 0.00 27 1004.4
20260503204456 74 312 8.0 20.0 0.00 0.00 0.00 27 1004.4
20260503202956 74 285 9.0 20.0 0.00 0.00 0.00 28 1004.5
20260503201456 74 296 12.0 20.0 0.00 0.00 0.00 29 1004.7
20260503195956 74 298 8.0 20.0 0.00 0.00 0.00 31 1004.7
20260503192956 73 285 12.0 22.0 0.00 0.00 0.00 29 1004.9
20260503191457 73 308 11.0 20.0 0.00 0.00 0.00 31 1004.9
20260503185956 73 278 8.0 18.0 0.00 0.00 0.00 34 1005.0
20260503182956 72 242 10.0 20.0 0.00 0.00 0.00 37 1005.2
20260503175956 70 280 7.0 18.0 0.00 0.00 0.00 40 1005.7
20260503174457 69 260 7.0 20.0 0.00 0.00 0.00 42 1005.9
20260503172956 68 254 10.0 17.0 0.00 0.00 0.00 40 1006.1
20260503171456 67 230 10.0 20.0 0.00 0.00 0.00 40 1006.2
20260503081456 53 222 4.0 10.0 0.00 0.00 0.00 50 1012.4
20260503071456 52 234 1.0 12.0 0.00 0.00 0.00 50 1012.8
20260503052958 52 205 5.0 12.0 0.00 0.00 0.00 48 1013.3
20260503051456 52 200 5.0 12.0 0.00 0.00 0.00 47 1013.4